Chadron, NE

9:53 AM MDT on May 25, 2017 (GMT -0600)
Chadron Municipal

Weather History for KCDR - January, 2013

Change the Weather History Date:

Wednesday, January 9, 2013

  Actual Average Record
Temperature  
Mean Temperature 37 °F 24 °F  
Max Temperature 58 °F 39 °F 63 °F (1916)
Min Temperature 16 °F 10 °F -25 °F (1973)
Degree Days  
Heating Degree Days 28 41  
Month to date heating degree days 359 369  
Since 1 July heating degree days 3070 3311  
Cooling Degree Days 0 0  
Month to date cooling degree days 0 0  
Year to date cooling degree days 0 0  
Moisture  
Dew Point 23 °F    
Average Humidity 60    
Maximum Humidity 92    
Minimum Humidity 28    
Precipitation  
Precipitation 0.00 in 0.01 in 0.60 in (1939)
Month to date precipitation T 0.10  
Year to date precipitation T 0.10  
Sea Level Pressure  
Sea Level Pressure 30.16 in    
Wind  
Wind Speed 9 mph (SW)    
Max Wind Speed 30 mph    
Max Gust Speed 35 mph    
Visibility 10 miles    
Events      
T = Trace of Precipitation, MM = Missing Value Source: NWS Daily Summary

Daily Weather History Graph

Daily Weather History Graph

Search for Another Location

Airport or City:

Trip Planner

Search our weather history database for the weather conditions in past years. The results will help you decide how hot, cold, wet, or windy it might be!

Date:

Astronomy

Jan. 09, 2013 Rise Set
Actual Time 7:22 AM MST 4:37 PM MST
Civil Twilight 6:50 AM MST 5:08 PM MST
Nautical Twilight 6:15 AM MST 5:44 PM MST
Astronomical Twilight 5:41 AM MST 6:18 PM MST
Moon 5:04 AM MST (1/9) 2:41 PM MST (1/9)
Length of Visible Light 10h 18m
Length of Day
9h 14m
Waning Crescent, 6% of the Moon is Illuminated
Jan 9
Waning Crescent
Jan 11
New
Jan 18
First Quarter
Jan 26
Full
Feb 3
Last Quarter

Hourly Weather History & Observations

Time (MST) Temp. Windchill Dew Point Humidity Pressure Visibility Wind Dir Wind Speed Gust Speed Precip Events Conditions
1:53 AM 19.9 °F 12.1 °F 17.1 °F 89% 30.26 in 10.0 mi SW 5.8 mph - N/A   Clear
2:53 AM 23.0 °F - 18.0 °F 81% 30.25 in 10.0 mi Calm Calm - N/A   Clear
3:53 AM 18.0 °F - 15.1 °F 88% 30.25 in 10.0 mi Calm Calm - N/A   Clear
4:53 AM 24.1 °F 19.7 °F 19.0 °F 81% 30.25 in 10.0 mi West 3.5 mph - N/A   Clear
5:53 AM 23.0 °F 17.0 °F 18.0 °F 81% 30.28 in 10.0 mi Variable 4.6 mph - N/A   Clear
6:53 AM 23.0 °F 18.4 °F 17.1 °F 78% 30.28 in 10.0 mi East 3.5 mph - N/A   Clear
8:53 AM 28.9 °F 22.8 °F 23.0 °F 78% 30.31 in 10.0 mi WSW 5.8 mph - N/A   Clear
9:53 AM 39.0 °F 36.8 °F 28.0 °F 65% 30.29 in 10.0 mi West 3.5 mph - N/A   Clear
10:53 AM 46.9 °F - 28.0 °F 48% 30.24 in 10.0 mi West 4.6 mph - N/A   Clear
11:53 AM 52.0 °F - 28.0 °F 40% 30.21 in 10.0 mi Calm Calm - N/A   Clear
12:53 PM 54.0 °F - 27.0 °F 35% 30.17 in 10.0 mi SSW 17.3 mph 26.5 mph N/A   Clear
1:53 PM 57.0 °F - 24.1 °F 28% 30.14 in 10.0 mi SW 16.1 mph - N/A   Clear
2:53 PM 57.9 °F - 24.1 °F 27% 30.12 in 10.0 mi SW 9.2 mph - N/A   Clear
3:53 PM 54.0 °F - 21.9 °F 29% 30.12 in 10.0 mi South 3.5 mph - N/A   Clear
4:53 PM 48.9 °F - 21.9 °F 35% 30.09 in 10.0 mi South 13.8 mph - N/A   Clear
5:53 PM 48.0 °F - 21.0 °F 34% 30.08 in 10.0 mi South 16.1 mph - N/A   Clear
6:53 PM 46.0 °F 38.5 °F 21.9 °F 39% 30.07 in 10.0 mi South 19.6 mph - N/A   Clear
7:53 PM 45.0 °F 37.1 °F 25.0 °F 46% 30.06 in 10.0 mi South 19.6 mph - N/A   Clear
8:53 PM 42.1 °F 35.2 °F 26.1 °F 53% 30.05 in 10.0 mi SSW 12.7 mph - N/A   Clear
9:53 PM 41.0 °F 31.9 °F 26.1 °F 55% 30.01 in 10.0 mi SSW 19.6 mph 28.8 mph N/A   Clear
10:53 PM 39.0 °F 31.8 °F 24.1 °F 55% 29.98 in 10.0 mi WSW 11.5 mph - N/A   Clear
11:53 PM 39.0 °F 30.6 °F 23.0 °F 53% 29.94 in 10.0 mi SSW 15.0 mph 20.7 mph N/A   Clear